• In Germany
  • List of Countries
  • For 7 days
  • Water Temperature
  • Satellite Maps
  • Weather Map
  • Weather Widgets
  • user-avatar
    Login

    Hourly Weather Banja Luka

    Today, 18 August, Friday

    Time Temperature Precipitation Wind Pressure Humidity
    00:00 +19°C° 0 mm 1 mps 717 mmHg 66%
    01:00 +19°C° 0 mm 1 mps 717 mmHg 68%
    02:00 +18°C° 0 mm 1 mps 717 mmHg 68%
    03:00 +18°C° 0 mm 1 mps 717 mmHg 69%
    04:00 +18°C° 0 mm 1 mps 717 mmHg 70%
    05:00 +19°C° 0 mm 1 mps 717 mmHg 67%
    06:00 +21°C° 0 mm 1 mps 717 mmHg 63%
    07:00 +20°C° 0 mm 0 mps 718 mmHg 60%
    08:00 +25°C° 0 mm 1 mps 718 mmHg 52%
    09:00 +28°C° 0 mm 1 mps 718 mmHg 44%
    10:00 +30°C° 0 mm 1 mps 719 mmHg 37%
    11:00 +31°C° 0 mm 1 mps 718 mmHg 34%
    12:00 +32°C° 0 mm 1 mps 718 mmHg 31%
    13:00 +33°C° 0 mm 1 mps 718 mmHg 28%
    14:00 +33°C° 0 mm 1 mps 718 mmHg 29%
    15:00 +33°C° 0 mm 1 mps 717 mmHg 29%
    16:00 +32°C° 0 mm 1 mps 717 mmHg 29%
    17:00 +30°C° 0 mm 1 mps 716 mmHg 37%
    18:00 +27°C° 0 mm 1 mps 716 mmHg 44%
    19:00 +24°C° 0 mm 1 mps 715 mmHg 52%
    20:00 +23°C° 0 mm 1 mps 715 mmHg 54%
    21:00 +22°C° 0 mm 1 mps 715 mmHg 56%
    22:00 +22°C° 0 mm 1 mps 715 mmHg 58%
    23:00 +21°C° 0 mm 1 mps 715 mmHg 59%

    Tomorrow, 19 August, Saturday

    Time Temperature Precipitation Wind Pressure Humidity
    00:00 +21°C° 0 mm 1 mps 715 mmHg 60%
    01:00 +21°C° 0 mm 1 mps 715 mmHg 61%
    02:00 +20°C° 0 mm 1 mps 715 mmHg 61%
    03:00 +20°C° 0 mm 1 mps 715 mmHg 62%
    04:00 +20°C° 0 mm 1 mps 714 mmHg 63%
    05:00 +21°C° 0 mm 1 mps 715 mmHg 61%
    06:00 +23°C° 0 mm 1 mps 715 mmHg 60%
    07:00 +24°C° 0 mm 1 mps 715 mmHg 58%
    08:00 +27°C° 0 mm 1 mps 715 mmHg 49%
    09:00 +30°C° 0 mm 1 mps 716 mmHg 41%
    10:00 +33°C° 0 mm 1 mps 716 mmHg 33%
    11:00 +33°C° 0 mm 1 mps 716 mmHg 31%
    12:00 +34°C° 0 mm 1 mps 716 mmHg 29%
    13:00 +36°C° 0 mm 2 mps 716 mmHg 28%
    14:00 +35°C° 0 mm 2 mps 715 mmHg 31%
    15:00 +32°C° 0 mm 2 mps 715 mmHg 35%
    16:00 +31°C° 0 mm 2 mps 715 mmHg 38%
    17:00 +29°C° 0.1 mm 2 mps 715 mmHg 47%
    18:00 +27°C° 0.1 mm 2 mps 715 mmHg 55%
    19:00 +24°C° 0.1 mm 2 mps 715 mmHg 64%
    20:00 +21°C° 0.2 mm 2 mps 715 mmHg 73%
    21:00 +19°C° 0.2 mm 2 mps 716 mmHg 81%
    22:00 +17°C° 0.2 mm 2 mps 716 mmHg 90%
    23:00 +17°C° 0.9 mm 2 mps 716 mmHg 92%

    Day after tomorrow, 20 August, Sunday

    Time Temperature Precipitation Wind Pressure Humidity
    00:00 +17°C° 0.9 mm 2 mps 716 mmHg 94%
    01:00 +16°C° 0.9 mm 1 mps 716 mmHg 96%
    02:00 +16°C° 1 mm 1 mps 716 mmHg 97%
    03:00 +16°C° 1 mm 1 mps 716 mmHg 97%
    04:00 +16°C° 1 mm 1 mps 716 mmHg 97%
    05:00 +16°C° 1 mm 1 mps 716 mmHg 97%
    06:00 +16°C° 1 mm 1 mps 716 mmHg 97%
    07:00 +16°C° 1 mm 1 mps 717 mmHg 97%
    08:00 +18°C° 0.7 mm 1 mps 717 mmHg 96%
    09:00 +17°C° 0.7 mm 2 mps 717 mmHg 94%
    10:00 +17°C° 0.7 mm 2 mps 717 mmHg 93%
    11:00 +18°C° 0.1 mm 2 mps 717 mmHg 90%
    12:00 +18°C° 0.1 mm 2 mps 717 mmHg 87%
    13:00 +18°C° 0.1 mm 2 mps 717 mmHg 84%
    14:00 +19°C° 0.1 mm 2 mps 717 mmHg 78%
    15:00 +20°C° 0.1 mm 2 mps 716 mmHg 73%
    16:00 +20°C° 0.1 mm 2 mps 716 mmHg 68%
    17:00 +20°C° 0 mm 1 mps 716 mmHg 73%
    18:00 +19°C° 0 mm 1 mps 716 mmHg 77%
    19:00 +16°C° 0 mm 1 mps 716 mmHg 82%
    20:00 +16°C° 0 mm 1 mps 716 mmHg 84%
    21:00 +15°C° 0 mm 1 mps 717 mmHg 86%
    22:00 +14°C° 0 mm 1 mps 717 mmHg 88%
    23:00 +14°C° 0 mm 1 mps 717 mmHg 88%

    21 August, Monday

    Time Temperature Precipitation Wind Pressure Humidity
    00:00 +13°C° 0 mm 1 mps 717 mmHg 87%
    01:00 +13°C° 0 mm 1 mps 717 mmHg 87%
    02:00 +12°C° 0 mm 1 mps 717 mmHg 87%
    03:00 +12°C° 0 mm 1 mps 717 mmHg 87%
    04:00 +11°C° 0 mm 1 mps 717 mmHg 88%
    05:00 +13°C° 0 mm 1 mps 717 mmHg 84%
    06:00 +14°C° 0 mm 1 mps 717 mmHg 79%
    07:00 +15°C° 0 mm 1 mps 718 mmHg 75%
    08:00 +17°C° 0 mm 2 mps 718 mmHg 69%
    09:00 +18°C° 0 mm 2 mps 718 mmHg 62%
    10:00 +20°C° 0 mm 3 mps 718 mmHg 55%
    11:00 +21°C° 0 mm 3 mps 718 mmHg 51%
    12:00 +22°C° 0 mm 3 mps 718 mmHg 47%
    13:00 +23°C° 0 mm 4 mps 718 mmHg 42%
    14:00 +23°C° 0 mm 4 mps 717 mmHg 42%
    15:00 +23°C° 0 mm 4 mps 717 mmHg 41%
    16:00 +23°C° 0 mm 4 mps 717 mmHg 40%
    17:00 +20°C° 0 mm 3 mps 717 mmHg 48%
    18:00 +18°C° 0 mm 2 mps 717 mmHg 55%
    19:00 +16°C° 0 mm 2 mps 717 mmHg 63%
    20:00 +15°C° 0 mm 1 mps 717 mmHg 66%
    21:00 +14°C° 0 mm 1 mps 717 mmHg 68%
    22:00 +13°C° 0 mm 1 mps 718 mmHg 71%
    23:00 +12°C° 0 mm 1 mps 718 mmHg 71%

    22 August, Tuesday

    Time Temperature Precipitation Wind Pressure Humidity
    00:00 +12°C° 0 mm 1 mps 718 mmHg 71%
    01:00 +11°C° 0 mm 1 mps 718 mmHg 71%
    02:00 +11°C° 0 mm 1 mps 718 mmHg 72%
    03:00 +11°C° 0 mm 1 mps 718 mmHg 73%
    04:00 +11°C° 0 mm 1 mps 718 mmHg 74%
    05:00 +12°C° 0 mm 1 mps 718 mmHg 70%
    06:00 +14°C° 0 mm 1 mps 719 mmHg 66%
    07:00 +16°C° 0 mm 1 mps 719 mmHg 61%
    08:00 +19°C° 0 mm 1 mps 719 mmHg 55%
    09:00 +20°C° 0 mm 2 mps 719 mmHg 48%
    10:00 +23°C° 0 mm 2 mps 720 mmHg 41%
    11:00 +24°C° 0 mm 2 mps 719 mmHg 39%
    12:00 +24°C° 0 mm 2 mps 719 mmHg 36%
    13:00 +25°C° 0 mm 2 mps 719 mmHg 33%
    14:00 +25°C° 0 mm 2 mps 719 mmHg 34%
    15:00 +25°C° 0 mm 2 mps 718 mmHg 34%
    16:00 +25°C° 0 mm 2 mps 718 mmHg 34%
    17:00 +22°C° 0 mm 1 mps 718 mmHg 43%
    18:00 +19°C° 0 mm 1 mps 717 mmHg 52%
    19:00 +15°C° 0 mm 0 mps 717 mmHg 61%
    20:00 +15°C° 0 mm 1 mps 717 mmHg 63%
    21:00 +14°C° 0 mm 1 mps 717 mmHg 64%
    22:00 +14°C° 0 mm 1 mps 717 mmHg 66%
    23:00 +14°C° 0 mm 1 mps 717 mmHg 66%

    23 August, Wednesday

    Time Temperature Precipitation Wind Pressure Humidity
    00:00 +13°C° 0 mm 1 mps 717 mmHg 67%
    01:00 +13°C° 0 mm 1 mps 717 mmHg 68%
    02:00 +13°C° 0 mm 1 mps 717 mmHg 66%
    03:00 +13°C° 0 mm 1 mps 717 mmHg 65%
    04:00 +12°C° 0 mm 1 mps 717 mmHg 64%
    05:00 +14°C° 0 mm 1 mps 717 mmHg 60%
    06:00 +16°C° 0 mm 1 mps 717 mmHg 56%
    07:00 +18°C° 0 mm 1 mps 718 mmHg 52%
    08:00 +22°C° 0 mm 1 mps 718 mmHg 45%
    09:00 +25°C° 0 mm 1 mps 718 mmHg 37%
    10:00 +28°C° 0 mm 1 mps 719 mmHg 29%
    11:00 +29°C° 0 mm 1 mps 719 mmHg 27%
    12:00 +30°C° 0 mm 1 mps 718 mmHg 25%
    13:00 +31°C° 0 mm 1 mps 718 mmHg 24%
    14:00 +31°C° 0 mm 1 mps 718 mmHg 25%
    15:00 +30°C° 0 mm 1 mps 718 mmHg 26%
    16:00 +30°C° 0 mm 1 mps 717 mmHg 27%
    17:00 +27°C° 0 mm 1 mps 717 mmHg 33%
    18:00 +24°C° 0 mm 1 mps 717 mmHg 40%
    19:00 +21°C° 0 mm 1 mps 716 mmHg 47%
    20:00 +20°C° 0 mm 1 mps 716 mmHg 49%
    21:00 +19°C° 0 mm 1 mps 716 mmHg 51%
    22:00 +19°C° 0 mm 1 mps 717 mmHg 52%
    23:00 +18°C° 0 mm 1 mps 716 mmHg 53%
    Show more